GLENN Weather Reports


time (UTC)temp
F
wind
direction
speed
knots
gust
knots
rain 1hr
in
rain 24hr
in
rain mn
in
humidity
%
barometer
mb
20260509180003 57 305 0.0 2.6 0.00 0.00 0.00 41 1020.1
20260509174509 57 52 2.6 8.7 0.00 0.00 0.00 40 1020.1
20260509173026 56 296 1.7 11.3 0.00 0.00 0.00 38 1020.1
20260509171518 55 316 3.5 10.4 0.00 0.00 0.00 39 1020.1
20260509170013 56 284 4.3 10.4 0.00 0.00 0.00 37 1020.0
20260509164506 55 296 1.7 9.6 0.00 0.00 0.00 37 1020.1
20260509163016 55 286 0.9 10.4 0.00 0.00 0.00 43 1020.1
20260509161508 54 303 3.5 10.4 0.00 0.00 0.00 41 1020.1
20260509160011 54 319 2.6 5.2 0.00 0.00 0.00 39 1020.0
20260509154511 54 346 0.9 6.1 0.00 0.00 0.00 44 1020.0
20260509153009 52 294 1.7 3.5 0.00 0.00 0.00 44 1020.0
20260509151508 50 302 1.7 2.6 0.00 0.00 0.00 48 1019.9
20260509150012 49 352 0.9 1.7 0.00 0.00 0.00 48 1019.8
20260509144510 48 294 0.9 1.7 0.00 0.00 0.00 52 1019.8
20260509143016 48 240 0.0 2.6 0.00 0.00 0.00 55 1019.6
20260509141507 47 248 0.9 2.6 0.00 0.00 0.00 53 1019.5
20260509140015 48 215 1.7 2.6 0.00 0.00 0.00 50 1019.4
20260509134512 49 227 0.0 0.0 0.00 0.00 0.00 50 1019.3
20260509133014 46 116 1.7 2.6 0.00 0.00 0.00 54 1019.3
20260509131514 41 108 2.6 3.5 0.00 0.00 0.00 59 1019.2
20260509130039 40 116 2.6 3.5 0.00 0.00 0.00 62 1019.0
20260509124529 42 153 3.5 5.2 0.00 0.00 0.00 58 1018.8
20260509123016 44 107 0.9 2.6 0.00 0.00 0.00 55 1018.4
20260509121506 44 352 0.0 1.7 0.00 0.00 0.00 53 1018.4
20260509120013 44 36 0.9 2.6 0.00 0.00 0.00 56 1018.2
20260509114518 43 108 1.7 2.6 0.00 0.00 0.00 62 1018.1
20260509113018 44 112 0.9 1.7 0.00 0.00 0.00 62 1018.0
20260509111518 42 161 0.0 4.3 0.00 0.00 0.00 67 1017.8
20260509110009 41 113 2.6 5.2 0.00 0.00 0.00 70 1017.7
20260509104508 43 150 1.7 3.5 0.00 0.00 0.00 60 1017.6
20260509103014 45 5 0.0 0.0 0.00 0.00 0.00 53 1017.5
20260509101529 43 105 0.0 0.0 0.00 0.00 0.00 57 1017.3
20260509100020 43 117 0.0 0.0 0.00 0.00 0.00 62 1017.2
20260509094513 42 117 0.0 0.0 0.00 0.00 0.00 65 1017.1
20260509093012 43 118 0.0 1.7 0.00 0.00 0.00 64 1017.0
20260509091519 47 37 0.9 1.7 0.00 0.00 0.00 59 1016.7
20260509090022 47 327 0.0 1.7 0.00 0.00 0.00 59 1016.4
20260509084527 47 56 0.0 0.0 0.00 0.00 0.00 59 1016.2
20260509083012 48 38 0.0 0.0 0.00 0.00 0.00 57 1016.0
20260509081517 48 53 0.0 2.6 0.00 0.00 0.00 57 1016.1
20260509080021 49 65 0.0 1.7 0.00 0.00 0.00 56 1015.9
20260509074524 49 335 0.0 0.0 0.00 0.00 0.00 56 1015.7
20260509073026 50 335 0.0 0.0 0.00 0.00 0.00 54 1015.6
20260509071513 50 342 0.0 0.0 0.00 0.00 0.00 54 1015.4
20260509070027 50 65 0.0 1.7 0.00 0.00 0.00 54 1015.3
20260509064524 50 84 0.9 1.7 0.00 0.00 0.00 54 1015.3
20260509063033 51 71 0.0 2.6 0.00 0.00 0.00 54 1015.2
20260509061529 52 63 0.9 2.6 0.00 0.00 0.00 53 1015.2
20260509060014 53 291 1.7 2.6 0.00 0.00 0.00 52 1015.0
20260509054521 55 311 0.9 3.5 0.00 0.00 0.00 46 1014.7
20260509053026 55 5 0.9 3.5 0.00 0.00 0.00 45 1014.5
20260509051526 56 37 0.0 7.0 0.00 0.00 0.00 46 1014.5
20260509050030 56 85 0.9 8.7 0.00 0.00 0.00 46 1014.2
20260509044518 56 352 2.6 7.8 0.00 0.00 0.00 46 1014.2
20260509043021 56 5 0.9 4.3 0.00 0.00 0.00 47 1014.1
20260509041526 56 5 0.9 9.6 0.00 0.00 0.00 48 1014.2
20260509040036 56 360 0.0 4.3 0.00 0.00 0.00 52 1014.1
20260509034527 56 17 0.0 1.7 0.00 0.00 0.00 50 1014.0
20260509033021 57 352 1.7 9.6 0.00 0.00 0.00 48 1013.9
20260509031530 58 342 3.5 7.8 0.00 0.00 0.00 46 1013.8
20260509030012 59 13 2.6 5.2 0.00 0.00 0.00 43 1013.5
20260509024514 59 5 1.7 7.8 0.00 0.00 0.00 44 1013.2
20260509023004 60 321 1.7 7.0 0.00 0.00 0.00 42 1012.9
20260509021507 60 32 1.7 5.2 0.00 0.00 0.00 40 1012.7
20260509020006 61 44 0.9 7.0 0.00 0.00 0.00 39 1012.8
20260509014530 63 13 0.0 3.5 0.00 0.00 0.00 39 1012.8
20260509013018 63 291 2.6 6.1 0.00 0.00 0.00 35 1012.5
20260509011505 64 250 1.7 7.8 0.00 0.00 0.00 38 1012.3
20260509010004 64 257 5.2 9.6 0.00 0.00 0.00 33 1012.2
20260509004513 65 304 0.9 1.7 0.00 0.00 0.00 32 1012.3
20260509003017 67 304 0.9 1.7 0.00 0.00 0.00 33 1012.2
20260509001527 67 9 0.9 1.7 0.00 0.00 0.00 31 1012.2
20260509000004 66 79 0.9 1.7 0.00 0.00 0.00 32 1012.2
20260508234509 65 78 0.9 1.7 0.00 0.00 0.00 32 1012.3
20260508233013 65 51 0.0 1.7 0.00 0.00 0.00 41 1012.5
20260508231516 64 352 0.0 2.6 0.00 0.00 0.00 37 1012.6
20260508230023 64 64 0.0 1.7 0.00 0.00 0.00 36 1012.7
20260508224509 65 69 0.0 1.7 0.00 0.00 0.00 36 1012.8
20260508223013 65 360 0.0 1.7 0.00 0.00 0.00 36 1012.8
20260508221515 66 352 0.0 4.3 0.00 0.00 0.00 36 1012.8
20260508220100 66 34 1.7 7.8 0.00 0.00 0.00 35 1013.0
20260508214525 66 304 2.6 4.3 0.00 0.00 0.00 36 1013.2
20260508213010 66 337 2.6 7.8 0.00 0.00 0.00 39 1013.3
20260508211520 65 344 1.7 2.6 0.00 0.00 0.00 41 1013.7
20260508210021 65 9 1.7 7.8 0.00 0.00 0.00 38 1013.9
20260508204524 66 24 1.7 6.1 0.00 0.00 0.00 41 1013.9
20260508203005 64 329 1.7 5.2 0.00 0.00 0.00 42 1014.2
20260508201513 65 5 0.9 3.5 0.00 0.00 0.00 42 1014.2
20260508200015 64 38 1.7 5.2 0.00 0.00 0.00 45 1014.4
20260508194522 64 308 3.5 8.7 0.00 0.00 0.00 39 1014.5
20260508193028 64 279 4.3 8.7 0.00 0.00 0.00 40 1014.5
20260508191515 63 241 2.6 8.7 0.00 0.00 0.00 44 1014.7
20260508190016 64 323 4.3 7.8 0.00 0.00 0.00 43 1014.7
20260508184526 63 342 3.5 7.8 0.00 0.00 0.00 41 1015.0
20260508183024 63 332 3.5 9.6 0.00 0.00 0.00 42 1015.2
20260508181509 62 350 0.9 5.2 0.00 0.00 0.00 43 1015.4